Regional Weather Roundup
Issued by NWS

Home | Current Version | Previous Version | Graphics & Text | Print | Product List | Glossary On
Versions: 1 2 3 4 5 6 7 8 9 10 11 12 13 14 15 16 17 18 19 20 21 22 23 24 25 26 27 28 29 30 31 32 33 34 35 36 37 38 39 40 41 42 43 44 45 46 47 48 49 50
000
ASUS43 KFSD 281010
RWRSD

WEATHER ROUNDUP FOR SOUTH DAKOTA
NATIONAL WEATHER SERVICE SIOUX FALLS SD
500 AM CDT MON JUL 28 2014

NOTE: "FAIR" INDICATES FEW OR NO CLOUDS BELOW 12,000 FEET WITH NO
SIGNIFICANT WEATHER AND/OR OBSTRUCTIONS TO VISIBILITY.


SDZ001>005-009-010-012>017-281100-
NORTHWEST AND NORTH CENTRAL SOUTH DAKOTA

CITY           SKY/WX    TMP DP  RH WIND       PRES   REMARKS
BUFFALO          N/A     54  50  86 SE7       30.29S
FAITH            N/A     54  49  83 SE6       30.34S
MOBRIDGE       CLEAR     51  51 100 N6        30.31R
$$

SDZ012>016-024>037-041>051-057-063-072>074-281100-
SOUTHWEST AND SOUTH CENTRAL SOUTH DAKOTA

CITY           SKY/WX    TMP DP  RH WIND       PRES   REMARKS
RAPID CTY ARPT PTCLDY    53  50  89 CALM      30.36F
PIERRE         CLEAR     52  51  97 NW5       30.31S
CUSTER         CLEAR     51  47  86 N3        30.44S
ELLSWORTH AFB  CLEAR     56  51  86 S6        30.35F
PHILIP         CLEAR     51  48  89 CALM      30.34S
PINE RIDGE     CLEAR     51  50  96 E5        30.35S
WINNER         FAIR      53  50  89 W6        30.32S
$$

SDZ004>011-016>023-039-040-281100-
NORTHEAST SOUTH DAKOTA

CITY           SKY/WX    TMP DP  RH WIND       PRES   REMARKS
ABERDEEN       CLOUDY    55  53  93 N8        30.28S
WATERTOWN      CLOUDY    59  56  89 N7        30.26R
SISSETON         N/A     60  58  92 N8        30.24S
$$

SDZ017-020-022-023-036>040-048>070-281100-
SOUTHEAST SOUTH DAKOTA

CITY           SKY/WX    TMP DP  RH WIND       PRES   REMARKS
SIOUX FALLS    CLOUDY    58  55  90 NW8       30.24S
HURON          CLEAR     50  48  93 NW5       30.28R
CHAMBERLAIN    CLEAR     55  53  91 N5        30.31S
MITCHELL       CLEAR     54  53  97 NW7       30.29R
YANKTON        CLEAR     55  52  88 NW9       30.27R
$$

ABBREVIATIONS USED IN REMARKS
   TC - TEMPERATURE IN CELSIUS
  WCI - WIND CHILL INDEX
   HX - HEAT INDEX
  VSB - VISIBILITY




USA.gov is the U.S. government's official web portal to all federal, state and local government web resources and services.